Year,Month,Day,Hour,Minute,Value (Times are PST for temperature in C)
2021,09,26,00,00,11.90
2021,09,26,00,01,11.90
2021,09,26,00,02,11.80
2021,09,26,00,03,11.90
2021,09,26,00,04,11.90
2021,09,26,00,05,12.00
2021,09,26,00,06,12.00
2021,09,26,00,07,11.90
2021,09,26,00,08,11.90
2021,09,26,00,09,12.00
2021,09,26,00,10,12.00
2021,09,26,00,11,12.00
2021,09,26,00,12,12.00
2021,09,26,00,13,12.00
2021,09,26,00,14,12.00
2021,09,26,00,15,12.00
2021,09,26,00,16,12.00
2021,09,26,00,17,11.90
2021,09,26,00,18,12.00
2021,09,26,00,19,12.00
2021,09,26,00,20,12.00
2021,09,26,00,21,12.00
2021,09,26,00,22,12.00
2021,09,26,00,23,11.90
2021,09,26,00,24,12.00
2021,09,26,00,25,11.90
2021,09,26,00,26,11.90
2021,09,26,00,27,11.90
2021,09,26,00,28,11.90
2021,09,26,00,29,11.90
2021,09,26,00,30,11.90
2021,09,26,00,31,11.90
2021,09,26,00,32,11.90
2021,09,26,00,33,11.90
2021,09,26,00,34,11.90
2021,09,26,00,35,11.90
2021,09,26,00,36,11.90
2021,09,26,00,37,11.90
2021,09,26,00,38,11.90
2021,09,26,00,39,11.90
2021,09,26,00,40,11.90
2021,09,26,00,41,11.90
2021,09,26,00,42,12.00
2021,09,26,00,43,12.00
2021,09,26,00,44,12.00
2021,09,26,00,45,12.00
2021,09,26,00,46,12.00
2021,09,26,00,47,12.00
2021,09,26,00,48,12.00
2021,09,26,00,49,12.10
2021,09,26,00,50,12.10
2021,09,26,00,51,12.10
2021,09,26,00,52,12.10
2021,09,26,00,53,12.10
2021,09,26,00,54,12.20
2021,09,26,00,55,12.30
2021,09,26,00,56,12.20
2021,09,26,00,57,12.10
2021,09,26,00,58,12.00
2021,09,26,00,59,12.10
2021,09,26,01,00,12.20
2021,09,26,01,01,12.30
2021,09,26,01,02,12.30
2021,09,26,01,03,12.30
2021,09,26,01,04,12.30
2021,09,26,01,05,12.40
2021,09,26,01,06,12.40
2021,09,26,01,07,12.50
2021,09,26,01,08,12.50
2021,09,26,01,09,12.60
2021,09,26,01,10,12.70
2021,09,26,01,11,12.70
2021,09,26,01,12,12.80
2021,09,26,01,13,12.80
2021,09,26,01,14,12.80
2021,09,26,01,15,12.80
2021,09,26,01,16,12.90
2021,09,26,01,17,12.90
2021,09,26,01,18,13.00
2021,09,26,01,19,13.00
2021,09,26,01,20,13.00
2021,09,26,01,21,12.90
2021,09,26,01,22,12.90
2021,09,26,01,23,12.90
2021,09,26,01,24,13.00
2021,09,26,01,25,13.10
2021,09,26,01,26,13.10
2021,09,26,01,27,13.20
2021,09,26,01,28,13.30
2021,09,26,01,29,13.30
2021,09,26,01,30,13.30
2021,09,26,01,31,13.20
2021,09,26,01,32,13.20
2021,09,26,01,33,13.20
2021,09,26,01,34,13.20
2021,09,26,01,35,13.20
2021,09,26,01,36,13.20
2021,09,26,01,37,13.30
2021,09,26,01,38,13.30
2021,09,26,01,39,13.30
2021,09,26,01,40,13.20
2021,09,26,01,41,13.20
2021,09,26,01,42,13.20
2021,09,26,01,43,13.20
2021,09,26,01,44,13.20
2021,09,26,01,45,13.10
2021,09,26,01,46,13.10
2021,09,26,01,47,13.20
2021,09,26,01,48,13.30
2021,09,26,01,49,13.30
2021,09,26,01,50,13.40
2021,09,26,01,51,13.50
2021,09,26,01,52,13.50
2021,09,26,01,53,13.40
2021,09,26,01,54,13.30
2021,09,26,01,55,13.30
2021,09,26,01,56,13.50
2021,09,26,01,57,13.50
2021,09,26,01,58,13.50
2021,09,26,01,59,13.50
2021,09,26,02,00,13.50
2021,09,26,02,01,13.60
2021,09,26,02,02,13.60
2021,09,26,02,03,13.60
2021,09,26,02,04,13.60
2021,09,26,02,05,13.60
2021,09,26,02,06,13.70
2021,09,26,02,07,13.60
2021,09,26,02,08,13.60
2021,09,26,02,09,13.60
2021,09,26,02,10,13.60
2021,09,26,02,11,13.70
2021,09,26,02,12,13.70
2021,09,26,02,13,13.70
2021,09,26,02,14,13.60
2021,09,26,02,15,13.50
2021,09,26,02,16,13.50
2021,09,26,02,17,13.50
2021,09,26,02,18,13.40
2021,09,26,02,19,13.40
2021,09,26,02,20,13.30
2021,09,26,02,21,13.30
2021,09,26,02,22,13.20
2021,09,26,02,23,13.30
2021,09,26,02,24,13.50
2021,09,26,02,25,13.50
2021,09,26,02,26,13.60
2021,09,26,02,27,13.60
2021,09,26,02,28,13.50
2021,09,26,02,29,13.60
2021,09,26,02,30,13.90
2021,09,26,02,31,14.00
2021,09,26,02,32,14.10
2021,09,26,02,33,14.10
2021,09,26,02,34,14.00
2021,09,26,02,35,13.90
2021,09,26,02,36,13.80
2021,09,26,02,37,13.80
2021,09,26,02,38,13.80
2021,09,26,02,39,13.80
2021,09,26,02,40,13.80
2021,09,26,02,41,13.80
2021,09,26,02,42,13.80
2021,09,26,02,43,13.90
2021,09,26,02,44,14.10
2021,09,26,02,45,14.00
2021,09,26,02,46,14.00
2021,09,26,02,47,14.10
2021,09,26,02,48,14.00
2021,09,26,02,49,13.90
2021,09,26,02,50,13.90
2021,09,26,02,51,14.00
2021,09,26,02,52,13.80
2021,09,26,02,53,13.80
2021,09,26,02,54,13.70
2021,09,26,02,55,13.60
2021,09,26,02,56,13.60
2021,09,26,02,57,13.50
2021,09,26,02,58,13.50
2021,09,26,02,59,13.50
2021,09,26,03,00,13.60
2021,09,26,03,01,13.70
2021,09,26,03,02,13.70
2021,09,26,03,03,13.70
2021,09,26,03,04,13.80
2021,09,26,03,05,13.80
2021,09,26,03,06,13.70
2021,09,26,03,07,13.60
2021,09,26,03,08,13.60
2021,09,26,03,09,13.60
2021,09,26,03,10,13.60
2021,09,26,03,11,13.60
2021,09,26,03,12,13.70
2021,09,26,03,13,13.80
2021,09,26,03,14,13.80
2021,09,26,03,15,13.80
2021,09,26,03,16,13.70
2021,09,26,03,17,13.60
2021,09,26,03,18,13.50
2021,09,26,03,19,13.40
2021,09,26,03,20,13.30
2021,09,26,03,21,13.10
2021,09,26,03,22,13.10
2021,09,26,03,23,13.30
2021,09,26,03,24,13.30
2021,09,26,03,25,13.20
2021,09,26,03,26,13.30
2021,09,26,03,27,13.50
2021,09,26,03,28,13.50
2021,09,26,03,29,13.60
2021,09,26,03,30,13.60
2021,09,26,03,31,13.60
2021,09,26,03,32,13.40
2021,09,26,03,33,13.20
2021,09,26,03,34,13.20
2021,09,26,03,35,13.30
2021,09,26,03,36,13.30
2021,09,26,03,37,13.30
2021,09,26,03,38,13.20
2021,09,26,03,39,13.30
2021,09,26,03,40,13.40
2021,09,26,03,41,13.40
2021,09,26,03,42,13.40
2021,09,26,03,43,13.50
2021,09,26,03,44,13.50
2021,09,26,03,45,13.60
2021,09,26,03,46,13.70
2021,09,26,03,47,13.70
2021,09,26,03,48,13.60
2021,09,26,03,49,13.50
2021,09,26,03,50,13.40
2021,09,26,03,51,13.40
2021,09,26,03,52,13.40
2021,09,26,03,53,13.30
2021,09,26,03,54,13.30
2021,09,26,03,55,13.30
2021,09,26,03,56,13.40
2021,09,26,03,57,13.40
2021,09,26,03,58,13.20
2021,09,26,03,59,13.20
2021,09,26,04,00,13.20
2021,09,26,04,01,13.40
2021,09,26,04,02,13.50
2021,09,26,04,03,13.50
2021,09,26,04,04,13.40
2021,09,26,04,05,13.40
2021,09,26,04,06,13.30
2021,09,26,04,07,13.30
2021,09,26,04,08,13.20
2021,09,26,04,09,13.20
2021,09,26,04,10,13.10
2021,09,26,04,11,13.20
2021,09,26,04,12,13.40
2021,09,26,04,13,13.40
2021,09,26,04,14,13.30
2021,09,26,04,15,13.30
2021,09,26,04,16,13.30
2021,09,26,04,17,13.30
2021,09,26,04,18,13.30
2021,09,26,04,19,13.30
2021,09,26,04,20,13.30
2021,09,26,04,21,13.30
2021,09,26,04,22,13.20
2021,09,26,04,23,13.00
2021,09,26,04,24,13.00
2021,09,26,04,25,13.10
2021,09,26,04,26,13.10
2021,09,26,04,27,13.00
2021,09,26,04,28,13.10
2021,09,26,04,29,13.10
2021,09,26,04,30,13.10
2021,09,26,04,31,13.20
2021,09,26,04,32,13.10
2021,09,26,04,33,13.10
2021,09,26,04,34,13.20
2021,09,26,04,35,13.20
2021,09,26,04,36,13.30
2021,09,26,04,37,13.30
2021,09,26,04,38,13.30
2021,09,26,04,39,13.30
2021,09,26,04,40,13.20
2021,09,26,04,41,13.10
2021,09,26,04,42,13.10
2021,09,26,04,43,12.90
2021,09,26,04,44,12.70
2021,09,26,04,45,12.50
2021,09,26,04,46,12.40
2021,09,26,04,47,12.40
2021,09,26,04,48,12.40
2021,09,26,04,49,12.30
2021,09,26,04,50,12.30
2021,09,26,04,51,12.30
2021,09,26,04,52,12.20
2021,09,26,04,53,12.10
2021,09,26,04,54,12.20
2021,09,26,04,55,12.30
2021,09,26,04,56,12.40
2021,09,26,04,57,12.40
2021,09,26,04,58,12.40
2021,09,26,04,59,12.40
2021,09,26,05,00,12.50
2021,09,26,05,01,12.70
2021,09,26,05,02,12.80
2021,09,26,05,03,12.70
2021,09,26,05,04,12.50
2021,09,26,05,05,12.30
2021,09,26,05,06,12.20
2021,09,26,05,07,12.10
2021,09,26,05,08,12.10
2021,09,26,05,09,12.10
2021,09,26,05,10,12.10
2021,09,26,05,11,12.10
2021,09,26,05,12,12.10
2021,09,26,05,13,12.20
2021,09,26,05,14,12.20
2021,09,26,05,15,12.30
2021,09,26,05,16,12.30
2021,09,26,05,17,12.40
2021,09,26,05,18,12.50
2021,09,26,05,19,12.50
2021,09,26,05,20,12.60
2021,09,26,05,21,12.60
2021,09,26,05,22,12.60
2021,09,26,05,23,12.60
2021,09,26,05,24,12.60
2021,09,26,05,25,12.50
2021,09,26,05,26,12.50
2021,09,26,05,27,12.50
2021,09,26,05,28,12.50
2021,09,26,05,29,12.50
2021,09,26,05,30,12.50
2021,09,26,05,31,12.60
2021,09,26,05,32,12.60
2021,09,26,05,33,12.70
2021,09,26,05,34,12.70
2021,09,26,05,35,12.70
2021,09,26,05,36,12.80
2021,09,26,05,37,12.80
2021,09,26,05,38,12.80
2021,09,26,05,39,12.80
2021,09,26,05,40,12.80
2021,09,26,05,41,12.80
2021,09,26,05,42,12.90
2021,09,26,05,43,12.90
2021,09,26,05,44,12.90
2021,09,26,05,45,12.90
2021,09,26,05,46,12.90
2021,09,26,05,47,12.90
2021,09,26,05,48,13.00
2021,09,26,05,49,13.00
2021,09,26,05,50,13.00
2021,09,26,05,51,13.00
2021,09,26,05,52,13.10
2021,09,26,05,53,13.00
2021,09,26,05,54,13.10
2021,09,26,05,55,13.10
2021,09,26,05,56,13.10
2021,09,26,05,57,13.10
2021,09,26,05,58,13.20
2021,09,26,05,59,13.20
2021,09,26,06,00,13.20
2021,09,26,06,01,13.20
2021,09,26,06,02,13.20
2021,09,26,06,03,13.20
2021,09,26,06,04,13.30
2021,09,26,06,05,13.30
2021,09,26,06,06,13.30
2021,09,26,06,07,13.30
2021,09,26,06,08,13.30
2021,09,26,06,09,13.30
2021,09,26,06,10,13.30
2021,09,26,06,11,13.30
2021,09,26,06,12,13.30
2021,09,26,06,13,13.00
2021,09,26,06,14,12.70
2021,09,26,06,15,12.40
2021,09,26,06,16,12.10
2021,09,26,06,17,11.90
2021,09,26,06,18,11.80
2021,09,26,06,19,11.70
2021,09,26,06,20,11.60
2021,09,26,06,21,11.60
2021,09,26,06,22,11.50
2021,09,26,06,23,11.50
2021,09,26,06,24,11.40
2021,09,26,06,25,11.40
2021,09,26,06,26,11.40
2021,09,26,06,27,11.40
2021,09,26,06,28,11.50
2021,09,26,06,29,11.50
2021,09,26,06,30,11.50
2021,09,26,06,31,11.40
2021,09,26,06,32,11.40
2021,09,26,06,33,11.40
2021,09,26,06,34,11.40
2021,09,26,06,35,11.40
2021,09,26,06,36,11.40
2021,09,26,06,37,11.40
2021,09,26,06,38,11.40
2021,09,26,06,39,11.40
2021,09,26,06,40,11.40
2021,09,26,06,41,11.40
2021,09,26,06,42,11.40
2021,09,26,06,43,11.40
2021,09,26,06,44,11.30
2021,09,26,06,45,11.30
2021,09,26,06,46,11.30
2021,09,26,06,47,11.30
2021,09,26,06,48,11.30
2021,09,26,06,49,11.30
2021,09,26,06,50,11.30
2021,09,26,06,51,11.30
2021,09,26,06,52,11.30
2021,09,26,06,53,11.40
2021,09,26,06,54,11.40
2021,09,26,06,55,11.40
2021,09,26,06,56,11.30
2021,09,26,06,57,11.30
2021,09,26,06,58,11.30
2021,09,26,06,59,11.30
2021,09,26,07,00,11.30
2021,09,26,07,01,11.30
2021,09,26,07,02,11.30
2021,09,26,07,03,11.30
2021,09,26,07,04,11.30
2021,09,26,07,05,11.30
2021,09,26,07,06,11.30
2021,09,26,07,07,11.30
2021,09,26,07,08,11.30
2021,09,26,07,09,11.30
2021,09,26,07,10,11.30
2021,09,26,07,11,11.30
2021,09,26,07,12,11.30
2021,09,26,07,13,11.30
2021,09,26,07,14,11.30
2021,09,26,07,15,11.30
2021,09,26,07,16,11.30
2021,09,26,07,17,11.30
2021,09,26,07,18,11.30
2021,09,26,07,19,11.30
2021,09,26,07,20,11.30
2021,09,26,07,21,11.30
2021,09,26,07,22,11.30
2021,09,26,07,23,11.30
2021,09,26,07,24,11.30
2021,09,26,07,25,11.30
2021,09,26,07,26,11.30
2021,09,26,07,27,11.30
2021,09,26,07,28,11.30
2021,09,26,07,29,11.30
2021,09,26,07,30,11.40
2021,09,26,07,31,11.40
2021,09,26,07,32,11.40
2021,09,26,07,33,11.40
2021,09,26,07,34,11.40
2021,09,26,07,35,11.40
2021,09,26,07,36,11.40
2021,09,26,07,37,11.50
2021,09,26,07,38,11.50
2021,09,26,07,39,11.50
2021,09,26,07,40,11.50
2021,09,26,07,41,11.60
2021,09,26,07,42,11.60
2021,09,26,07,43,11.60
2021,09,26,07,44,11.60
2021,09,26,07,45,11.60
2021,09,26,07,46,11.60
2021,09,26,07,47,11.60
2021,09,26,07,48,11.60
2021,09,26,07,49,11.60
2021,09,26,07,50,11.60
2021,09,26,07,51,11.60
2021,09,26,07,52,11.60
2021,09,26,07,53,11.60
2021,09,26,07,54,11.60
2021,09,26,07,55,11.60
2021,09,26,07,56,11.60
2021,09,26,07,57,11.60
2021,09,26,07,58,11.60
2021,09,26,07,59,11.60
2021,09,26,08,00,11.60
2021,09,26,08,01,11.60
2021,09,26,08,02,11.60
2021,09,26,08,03,11.60
2021,09,26,08,04,11.50
2021,09,26,08,05,11.50
2021,09,26,08,06,11.50
2021,09,26,08,07,11.40
2021,09,26,08,08,11.40
2021,09,26,08,09,11.40
2021,09,26,08,10,11.40
2021,09,26,08,11,11.40
2021,09,26,08,12,11.40
2021,09,26,08,13,11.40
2021,09,26,08,14,11.40
2021,09,26,08,15,11.40
2021,09,26,08,16,11.50
2021,09,26,08,17,11.50
2021,09,26,08,18,11.50
2021,09,26,08,19,11.50
2021,09,26,08,20,11.50
2021,09,26,08,21,11.50
2021,09,26,08,22,11.60
2021,09,26,08,23,11.60
2021,09,26,08,24,11.60
2021,09,26,08,25,11.60
2021,09,26,08,26,11.60
2021,09,26,08,27,11.60
2021,09,26,08,28,11.60
2021,09,26,08,29,11.60
2021,09,26,08,30,11.60
2021,09,26,08,31,11.60
2021,09,26,08,32,11.60
2021,09,26,08,33,11.60
2021,09,26,08,34,11.60
2021,09,26,08,35,11.60
2021,09,26,08,36,11.60
2021,09,26,08,37,11.60
2021,09,26,08,38,11.60
2021,09,26,08,39,11.60
2021,09,26,08,40,11.60
2021,09,26,08,41,11.60
2021,09,26,08,42,11.60
2021,09,26,08,43,11.60
2021,09,26,08,44,11.70
2021,09,26,08,45,11.70
2021,09,26,08,46,11.70
2021,09,26,08,47,11.70
2021,09,26,08,48,11.70
2021,09,26,08,49,11.70
2021,09,26,08,50,11.70
2021,09,26,08,51,11.70
2021,09,26,08,52,11.70
2021,09,26,08,53,11.70
2021,09,26,08,54,11.70
2021,09,26,08,55,11.70
2021,09,26,08,56,11.70
2021,09,26,08,57,11.70
2021,09,26,08,58,11.70
2021,09,26,08,59,11.70
2021,09,26,09,00,11.70
2021,09,26,09,01,11.80
2021,09,26,09,02,11.80
2021,09,26,09,03,11.80
2021,09,26,09,04,11.80
2021,09,26,09,05,11.80
2021,09,26,09,06,11.80
2021,09,26,09,07,11.80
2021,09,26,09,08,11.80
2021,09,26,09,09,11.80
2021,09,26,09,10,11.80
2021,09,26,09,11,11.80
2021,09,26,09,12,11.90
2021,09,26,09,13,11.90
2021,09,26,09,14,11.90
2021,09,26,09,15,11.90
2021,09,26,09,16,11.80
2021,09,26,09,17,11.90
2021,09,26,09,18,11.80
2021,09,26,09,19,11.90
2021,09,26,09,20,11.80
2021,09,26,09,21,11.80
2021,09,26,09,22,11.80
2021,09,26,09,23,11.80
2021,09,26,09,24,11.80
2021,09,26,09,25,11.80
2021,09,26,09,26,11.80
2021,09,26,09,27,11.90
2021,09,26,09,28,11.90
2021,09,26,09,29,11.90
2021,09,26,09,30,11.90
2021,09,26,09,31,11.90
2021,09,26,09,32,11.90
2021,09,26,09,33,11.90
2021,09,26,09,34,11.90
2021,09,26,09,35,11.90
2021,09,26,09,36,11.90
2021,09,26,09,37,11.90
2021,09,26,09,38,11.90
2021,09,26,09,39,11.90
2021,09,26,09,40,11.90
2021,09,26,09,41,11.90
2021,09,26,09,42,11.80
2021,09,26,09,43,11.90
2021,09,26,09,44,11.80
2021,09,26,09,45,11.80
2021,09,26,09,46,11.80
2021,09,26,09,47,11.80
2021,09,26,09,48,11.80
2021,09,26,09,49,11.80
2021,09,26,09,50,11.80
2021,09,26,09,51,11.80
2021,09,26,09,52,11.80
2021,09,26,09,53,11.70
2021,09,26,09,54,11.70
2021,09,26,09,55,11.70
2021,09,26,09,56,11.70
2021,09,26,09,57,11.70
2021,09,26,09,58,11.70
2021,09,26,09,59,11.70
2021,09,26,10,00,11.70
2021,09,26,10,01,11.70
2021,09,26,10,02,11.70
2021,09,26,10,03,11.70
2021,09,26,10,04,11.70
2021,09,26,10,05,11.70
2021,09,26,10,06,11.70
2021,09,26,10,07,11.70
2021,09,26,10,08,11.70
2021,09,26,10,09,11.70
2021,09,26,10,10,11.70
2021,09,26,10,11,11.70
2021,09,26,10,12,11.70
2021,09,26,10,13,11.60
2021,09,26,10,14,11.60
2021,09,26,10,15,11.50
2021,09,26,10,16,11.60
2021,09,26,10,17,11.50
2021,09,26,10,18,11.50
2021,09,26,10,19,11.50
2021,09,26,10,20,11.50
2021,09,26,10,21,11.50
2021,09,26,10,22,11.50
2021,09,26,10,23,11.60
2021,09,26,10,24,11.60
2021,09,26,10,25,11.60
2021,09,26,10,26,11.60
2021,09,26,10,27,11.60
2021,09,26,10,28,11.60
2021,09,26,10,29,11.60
2021,09,26,10,30,11.60
2021,09,26,10,31,11.60
2021,09,26,10,32,11.60
2021,09,26,10,33,11.60
2021,09,26,10,34,11.60
2021,09,26,10,35,11.60
2021,09,26,10,36,11.60
2021,09,26,10,37,11.60
2021,09,26,10,38,11.60
2021,09,26,10,39,11.60
2021,09,26,10,40,11.60
2021,09,26,10,41,11.60
2021,09,26,10,42,11.60
2021,09,26,10,43,11.60
2021,09,26,10,44,11.50
2021,09,26,10,45,11.50
2021,09,26,10,46,11.60
2021,09,26,10,47,11.50
2021,09,26,10,48,11.50
2021,09,26,10,49,11.50
2021,09,26,10,50,11.50
2021,09,26,10,51,11.50
2021,09,26,10,52,11.50
2021,09,26,10,53,11.50
2021,09,26,10,54,11.60
2021,09,26,10,55,11.60
2021,09,26,10,56,11.60
2021,09,26,10,57,11.50
2021,09,26,10,58,11.50
2021,09,26,10,59,11.50
2021,09,26,11,00,11.50
2021,09,26,11,01,11.50
2021,09,26,11,02,11.50
2021,09,26,11,03,11.50
2021,09,26,11,04,11.50
2021,09,26,11,05,11.60
2021,09,26,11,06,11.60
2021,09,26,11,07,11.60
2021,09,26,11,08,11.50
2021,09,26,11,09,11.50
2021,09,26,11,10,11.50
2021,09,26,11,11,11.60
2021,09,26,11,12,11.60
2021,09,26,11,13,11.60
2021,09,26,11,14,11.60
2021,09,26,11,15,11.60
2021,09,26,11,16,11.60
2021,09,26,11,17,11.60
2021,09,26,11,18,11.60
2021,09,26,11,19,11.60
2021,09,26,11,20,11.60
2021,09,26,11,21,11.60
2021,09,26,11,22,11.60
2021,09,26,11,23,11.60
2021,09,26,11,24,11.60
2021,09,26,11,25,11.60
2021,09,26,11,26,11.60
2021,09,26,11,27,11.60
2021,09,26,11,28,11.60
2021,09,26,11,29,11.60
2021,09,26,11,30,11.60
2021,09,26,11,31,11.60
2021,09,26,11,32,11.60
2021,09,26,11,33,11.60
2021,09,26,11,34,11.60
2021,09,26,11,35,11.60
2021,09,26,11,36,11.60
2021,09,26,11,37,11.60
2021,09,26,11,38,11.60
2021,09,26,11,39,11.60
2021,09,26,11,40,11.60
2021,09,26,11,41,11.60
2021,09,26,11,42,11.60
2021,09,26,11,43,11.60
2021,09,26,11,44,11.60
2021,09,26,11,45,11.60
2021,09,26,11,46,11.60
2021,09,26,11,47,11.60
2021,09,26,11,48,11.60
2021,09,26,11,49,11.60
2021,09,26,11,50,11.60
2021,09,26,11,51,11.60
2021,09,26,11,52,11.60
2021,09,26,11,53,11.60
2021,09,26,11,54,11.60
2021,09,26,11,55,11.60
2021,09,26,11,56,11.60
2021,09,26,11,57,11.60
2021,09,26,11,58,11.60
2021,09,26,11,59,11.60
2021,09,26,12,00,11.70
2021,09,26,12,01,11.70
2021,09,26,12,02,11.60
2021,09,26,12,03,11.60
2021,09,26,12,04,11.60
2021,09,26,12,05,11.60
2021,09,26,12,06,11.60
2021,09,26,12,07,11.60
2021,09,26,12,08,11.60
2021,09,26,12,09,11.60
2021,09,26,12,10,11.60
2021,09,26,12,11,11.50
2021,09,26,12,12,11.50
2021,09,26,12,13,11.40
2021,09,26,12,14,11.40
2021,09,26,12,15,11.40
2021,09,26,12,16,11.40
2021,09,26,12,17,11.40
2021,09,26,12,18,11.40
2021,09,26,12,19,11.40
2021,09,26,12,20,11.40
2021,09,26,12,21,11.40
2021,09,26,12,22,11.40
2021,09,26,12,23,11.40
2021,09,26,12,24,11.40
2021,09,26,12,25,11.40
2021,09,26,12,26,11.40
2021,09,26,12,27,11.40
2021,09,26,12,28,11.40
2021,09,26,12,29,11.40
2021,09,26,12,30,11.50
2021,09,26,12,31,11.50
2021,09,26,12,32,11.50
2021,09,26,12,33,11.50
2021,09,26,12,34,11.60
2021,09,26,12,35,11.50
2021,09,26,12,36,11.50
2021,09,26,12,37,11.50
2021,09,26,12,38,11.50
2021,09,26,12,39,11.50
2021,09,26,12,40,11.50
2021,09,26,12,41,11.40
2021,09,26,12,42,11.40
2021,09,26,12,43,11.40
2021,09,26,12,44,11.40
2021,09,26,12,45,11.40
2021,09,26,12,46,11.40
2021,09,26,12,47,11.40
2021,09,26,12,48,11.40
2021,09,26,12,49,11.40
2021,09,26,12,50,11.40
2021,09,26,12,51,11.40
2021,09,26,12,52,11.40
2021,09,26,12,53,11.40
2021,09,26,12,54,11.40
2021,09,26,12,55,11.40
2021,09,26,12,56,11.40
2021,09,26,12,57,11.40
2021,09,26,12,58,11.40
2021,09,26,12,59,11.40
2021,09,26,13,00,11.40
2021,09,26,13,01,11.40
2021,09,26,13,02,11.40
2021,09,26,13,03,11.40
2021,09,26,13,04,11.40
2021,09,26,13,05,11.40
2021,09,26,13,06,11.40
2021,09,26,13,07,11.40
2021,09,26,13,08,11.40
2021,09,26,13,09,11.40
2021,09,26,13,10,11.30
2021,09,26,13,11,11.30
2021,09,26,13,12,11.30
2021,09,26,13,13,11.30
2021,09,26,13,14,11.30
2021,09,26,13,15,11.30
2021,09,26,13,16,11.30
2021,09,26,13,17,11.30
2021,09,26,13,18,11.30
2021,09,26,13,19,11.30
2021,09,26,13,20,11.30
2021,09,26,13,21,11.30
2021,09,26,13,22,11.30
2021,09,26,13,23,11.30
2021,09,26,13,24,11.20
2021,09,26,13,25,11.20
2021,09,26,13,26,11.20
2021,09,26,13,27,11.20
2021,09,26,13,28,11.20
2021,09,26,13,29,11.20
2021,09,26,13,30,11.20
2021,09,26,13,31,11.20
2021,09,26,13,32,11.20
2021,09,26,13,33,11.20
2021,09,26,13,34,11.20
2021,09,26,13,35,11.20
2021,09,26,13,36,11.20
2021,09,26,13,37,11.20
2021,09,26,13,38,11.20
2021,09,26,13,39,11.20
2021,09,26,13,40,11.20
2021,09,26,13,41,11.20
2021,09,26,13,42,11.20
2021,09,26,13,43,11.20
2021,09,26,13,44,11.20
2021,09,26,13,45,11.20
2021,09,26,13,46,11.20
2021,09,26,13,47,11.20
2021,09,26,13,48,11.20
2021,09,26,13,49,11.20
2021,09,26,13,50,11.20
2021,09,26,13,51,11.20
2021,09,26,13,52,11.20
2021,09,26,13,53,11.20
2021,09,26,13,54,11.20
2021,09,26,13,55,11.20
2021,09,26,13,56,11.20
2021,09,26,13,57,11.20
2021,09,26,13,58,11.20
2021,09,26,13,59,11.20
2021,09,26,14,00,11.20
2021,09,26,14,01,11.30
2021,09,26,14,02,11.30
2021,09,26,14,03,11.30
2021,09,26,14,04,11.30
2021,09,26,14,05,11.30
2021,09,26,14,06,11.30
2021,09,26,14,07,11.40
2021,09,26,14,08,11.40
2021,09,26,14,09,11.40
2021,09,26,14,10,11.40
2021,09,26,14,11,11.40
2021,09,26,14,12,11.40
2021,09,26,14,13,11.30
2021,09,26,14,14,11.30
2021,09,26,14,15,11.30
2021,09,26,14,16,11.30
2021,09,26,14,17,11.30
2021,09,26,14,18,11.30
2021,09,26,14,19,11.30
2021,09,26,14,20,11.30
2021,09,26,14,21,11.30
2021,09,26,14,22,11.30
2021,09,26,14,23,11.30
2021,09,26,14,24,11.30
2021,09,26,14,25,11.30
2021,09,26,14,26,11.30
2021,09,26,14,27,11.30
2021,09,26,14,28,11.30
2021,09,26,14,29,11.40
2021,09,26,14,30,11.40
2021,09,26,14,31,11.40
2021,09,26,14,32,11.40
2021,09,26,14,33,11.40
2021,09,26,14,34,11.40
2021,09,26,14,35,11.40
2021,09,26,14,36,11.40
2021,09,26,14,37,11.40
2021,09,26,14,38,11.40
2021,09,26,14,39,11.40
2021,09,26,14,40,11.40
2021,09,26,14,41,11.40
2021,09,26,14,42,11.40
2021,09,26,14,43,11.40
2021,09,26,14,44,11.40
2021,09,26,14,45,11.50
2021,09,26,14,46,11.50
2021,09,26,14,47,11.50
2021,09,26,14,48,11.60
2021,09,26,14,49,11.60
2021,09,26,14,50,11.60
2021,09,26,14,51,11.70
2021,09,26,14,52,11.70
2021,09,26,14,53,11.70
2021,09,26,14,54,11.70
2021,09,26,14,55,11.80
2021,09,26,14,56,11.80
2021,09,26,14,57,11.80
2021,09,26,14,58,11.90
2021,09,26,14,59,11.90
2021,09,26,15,00,12.00
2021,09,26,15,01,12.00
2021,09,26,15,02,12.00
2021,09,26,15,03,12.00
2021,09,26,15,04,12.00
2021,09,26,15,05,11.90
2021,09,26,15,06,11.90
2021,09,26,15,07,11.90
2021,09,26,15,08,11.90
2021,09,26,15,09,11.90
2021,09,26,15,10,11.90
2021,09,26,15,11,11.90
2021,09,26,15,12,11.90
2021,09,26,15,13,11.90
2021,09,26,15,14,11.90
2021,09,26,15,15,11.90
2021,09,26,15,16,11.90
2021,09,26,15,17,11.90
2021,09,26,15,18,12.00
2021,09,26,15,19,12.00
2021,09,26,15,20,12.00
2021,09,26,15,21,11.90
2021,09,26,15,22,11.90
2021,09,26,15,23,11.80
2021,09,26,15,24,11.80
2021,09,26,15,25,11.80
2021,09,26,15,26,11.80
2021,09,26,15,27,11.80
2021,09,26,15,28,11.80
2021,09,26,15,29,11.90
2021,09,26,15,30,11.90
2021,09,26,15,31,12.00
2021,09,26,15,32,12.00
2021,09,26,15,33,12.10
2021,09,26,15,34,12.10
2021,09,26,15,35,12.10
2021,09,26,15,36,12.10
2021,09,26,15,37,12.10
2021,09,26,15,38,12.10
2021,09,26,15,39,12.10
2021,09,26,15,40,12.10
2021,09,26,15,41,12.10
2021,09,26,15,42,12.10
2021,09,26,15,43,12.10
2021,09,26,15,44,12.10
2021,09,26,15,45,12.10
2021,09,26,15,46,12.10
2021,09,26,15,47,12.10
2021,09,26,15,48,12.10
2021,09,26,15,49,12.10
2021,09,26,15,50,12.10
2021,09,26,15,51,12.10
2021,09,26,15,52,12.10
2021,09,26,15,53,12.10
2021,09,26,15,54,12.10
2021,09,26,15,55,12.10
2021,09,26,15,56,12.10
2021,09,26,15,57,12.10
2021,09,26,15,58,12.10
2021,09,26,15,59,12.20
2021,09,26,16,00,12.20
2021,09,26,16,01,12.20
2021,09,26,16,02,12.20
2021,09,26,16,03,12.20
2021,09,26,16,04,12.20
2021,09,26,16,05,12.20
2021,09,26,16,06,12.20
2021,09,26,16,07,12.20
2021,09,26,16,08,12.20
2021,09,26,16,09,12.20
2021,09,26,16,10,12.20
2021,09,26,16,11,12.20
2021,09,26,16,12,12.20
2021,09,26,16,13,12.20
2021,09,26,16,14,12.20
2021,09,26,16,15,12.20
2021,09,26,16,16,12.20
2021,09,26,16,17,12.20
2021,09,26,16,18,12.20
2021,09,26,16,19,12.20
2021,09,26,16,20,12.20
2021,09,26,16,21,12.20
2021,09,26,16,22,12.20
2021,09,26,16,23,12.20
2021,09,26,16,24,12.20
2021,09,26,16,25,12.20
2021,09,26,16,26,12.20
2021,09,26,16,27,12.20
2021,09,26,16,28,12.20
2021,09,26,16,29,12.20
2021,09,26,16,30,12.20
2021,09,26,16,31,12.20
2021,09,26,16,32,12.20
2021,09,26,16,33,12.20
2021,09,26,16,34,12.20
2021,09,26,16,35,12.20
2021,09,26,16,36,12.20
2021,09,26,16,37,12.20
2021,09,26,16,38,12.20
2021,09,26,16,39,12.20
2021,09,26,16,40,12.20
2021,09,26,16,41,12.20
2021,09,26,16,42,12.20
2021,09,26,16,43,12.20
2021,09,26,16,44,12.10
2021,09,26,16,45,12.10
2021,09,26,16,46,12.10
2021,09,26,16,47,12.10
2021,09,26,16,48,12.10
2021,09,26,16,49,12.10
2021,09,26,16,50,12.10
2021,09,26,16,51,12.10
2021,09,26,16,52,12.10
2021,09,26,16,53,12.10
2021,09,26,16,54,12.10
2021,09,26,16,55,12.10
2021,09,26,16,56,12.10
2021,09,26,16,57,12.10
2021,09,26,16,58,12.10
2021,09,26,16,59,12.20
2021,09,26,17,00,12.20
2021,09,26,17,01,12.10
2021,09,26,17,02,12.10
2021,09,26,17,03,12.10
2021,09,26,17,04,12.00
2021,09,26,17,05,12.10
2021,09,26,17,06,12.00
2021,09,26,17,07,12.00
2021,09,26,17,08,12.10
2021,09,26,17,09,12.10
2021,09,26,17,10,12.10
2021,09,26,17,11,12.00
2021,09,26,17,12,12.00
2021,09,26,17,13,12.00
2021,09,26,17,14,11.90
2021,09,26,17,15,11.90
2021,09,26,17,16,11.90
2021,09,26,17,17,11.90
2021,09,26,17,18,11.80
2021,09,26,17,19,11.80